Time,TemperatureF,DewpointF,PressureIn,WindDirection,WindDirectionDegrees,WindSpeedMPH,WindSpeedGustMPH,Humidity,HourlyPrecipIn,Conditions,Clouds,dailyrainin,SoftwareType,DateUTC
2013-02-20 00:00:00,37.5,25.7,29.74,SSW,202,6.0,9.0,62,0.00,,,0.20,WeatherCatV1.13B119,2013-02-20 05:00:00,
2013-02-20 00:05:00,37.5,25.7,29.74,WNW,294,1.0,3.0,62,0.00,,,0.00,WeatherCatV1.13B119,2013-02-20 05:05:00,
2013-02-20 00:10:00,37.3,25.5,29.74,West,264,1.0,2.0,62,0.00,,,0.00,WeatherCatV1.13B119,2013-02-20 05:10:00,
2013-02-20 00:15:00,37.2,25.8,29.74,WSW,257,1.0,6.0,63,0.00,,,0.00,WeatherCatV1.13B119,2013-02-20 05:15:00,
2013-02-20 00:20:00,37.1,25.3,29.74,West,276,2.0,3.0,62,0.00,,,0.00,WeatherCatV1.13B119,2013-02-20 05:20:00,
2013-02-20 00:25:00,37.0,25.6,29.74,SW,214,2.0,4.0,63,0.00,,,0.00,WeatherCatV1.13B119,2013-02-20 05:25:00,
2013-02-20 00:30:00,36.9,25.9,29.74,SW,221,0.0,2.0,64,0.00,,,0.00,WeatherCatV1.13B119,2013-02-20 05:30:00,
2013-02-20 00:35:00,36.6,25.6,29.74,WNW,284,1.0,4.0,64,0.00,,,0.00,WeatherCatV1.13B119,2013-02-20 05:35:00,
2013-02-20 00:40:00,36.6,25.2,29.74,SW,230,2.0,3.0,63,0.00,,,0.00,WeatherCatV1.13B119,2013-02-20 05:40:00,
2013-02-20 00:45:00,36.4,25.0,29.74,WSW,255,3.0,4.0,63,0.00,,,0.00,WeatherCatV1.13B119,2013-02-20 05:45:00,
2013-02-20 00:50:00,36.3,25.3,29.73,WSW,238,2.0,3.0,64,0.00,,,0.00,WeatherCatV1.13B119,2013-02-20 05:50:00,
2013-02-20 00:55:00,36.2,24.5,29.74,West,276,4.0,6.0,62,0.00,,,0.00,WeatherCatV1.13B119,2013-02-20 05:55:00,
2013-02-20 01:00:00,36.2,24.8,29.74,West,269,4.0,4.0,63,0.00,,,0.00,WeatherCatV1.13B119,2013-02-20 06:00:00,
2013-02-20 01:05:00,36.2,24.1,29.74,WSW,258,3.0,5.0,61,0.00,,,0.00,WeatherCatV1.13B119,2013-02-20 06:05:00,
2013-02-20 01:10:00,36.1,24.4,29.74,SW,228,2.0,3.0,62,0.00,,,0.00,WeatherCatV1.13B119,2013-02-20 06:10:00,
2013-02-20 01:15:00,36.0,24.3,29.74,West,260,2.0,4.0,62,0.00,,,0.00,WeatherCatV1.13B119,2013-02-20 06:15:00,
2013-02-20 01:20:00,35.9,24.2,29.74,West,260,2.0,5.0,62,0.00,,,0.00,WeatherCatV1.13B119,2013-02-20 06:20:00,
2013-02-20 01:25:00,35.9,24.2,29.74,WSW,248,1.0,2.0,62,0.00,,,0.00,WeatherCatV1.13B119,2013-02-20 06:25:00,
2013-02-20 01:30:00,35.7,24.0,29.74,West,273,3.0,4.0,62,0.00,,,0.00,WeatherCatV1.13B119,2013-02-20 06:30:00,
2013-02-20 01:35:00,35.6,23.9,29.74,WSW,248,0.0,5.0,62,0.00,,,0.00,WeatherCatV1.13B119,2013-02-20 06:35:00,
2013-02-20 01:40:00,35.6,23.5,29.74,WNW,284,0.0,3.0,61,0.00,,,0.00,WeatherCatV1.13B119,2013-02-20 06:40:00,
2013-02-20 01:45:00,35.5,23.8,29.74,West,267,1.0,3.0,62,0.00,,,0.00,WeatherCatV1.13B119,2013-02-20 06:45:00,
2013-02-20 01:50:00,35.4,23.3,29.75,WSW,258,3.0,4.0,61,0.00,,,0.00,WeatherCatV1.13B119,2013-02-20 06:50:00,
2013-02-20 01:55:00,35.3,23.2,29.75,WSW,252,2.0,3.0,61,0.00,,,0.00,WeatherCatV1.13B119,2013-02-20 06:55:00,
2013-02-20 02:00:00,35.2,23.1,29.75,WSW,249,0.0,3.0,61,0.00,,,0.00,WeatherCatV1.13B119,2013-02-20 07:00:00,
2013-02-20 02:05:00,35.1,23.4,29.75,WNW,284,2.0,4.0,62,0.00,,,0.00,WeatherCatV1.13B119,2013-02-20 07:05:00,
2013-02-20 02:10:00,34.9,23.2,29.75,West,273,2.0,3.0,62,0.00,,,0.00,WeatherCatV1.13B119,2013-02-20 07:10:00,
2013-02-20 02:15:00,34.8,23.1,29.75,SW,227,1.0,5.0,62,0.00,,,0.00,WeatherCatV1.13B119,2013-02-20 07:15:00,
2013-02-20 02:20:00,34.7,23.0,29.75,WNW,284,1.0,2.0,62,0.00,,,0.00,WeatherCatV1.13B119,2013-02-20 07:20:00,
2013-02-20 02:25:00,34.7,22.6,29.75,SW,221,1.0,6.0,61,0.00,,,0.00,WeatherCatV1.13B119,2013-02-20 07:25:00,
2013-02-20 02:30:00,34.6,22.6,29.75,West,265,3.0,4.0,61,0.00,,,0.00,WeatherCatV1.13B119,2013-02-20 07:30:00,
2013-02-20 02:35:00,34.6,22.6,29.75,WSW,246,1.0,3.0,61,0.00,,,0.00,WeatherCatV1.13B119,2013-02-20 07:35:00,
2013-02-20 02:40:00,34.5,22.5,29.75,WNW,294,3.0,6.0,61,0.00,,,0.00,WeatherCatV1.13B119,2013-02-20 07:40:00,
2013-02-20 02:45:00,34.5,22.1,29.75,West,277,2.0,7.0,60,0.00,,,0.00,WeatherCatV1.13B119,2013-02-20 07:45:00,
2013-02-20 02:50:00,34.5,22.1,29.75,West,260,2.0,7.0,60,0.00,,,0.00,WeatherCatV1.13B119,2013-02-20 07:50:00,
2013-02-20 02:55:00,34.4,22.4,29.75,SW,222,5.0,5.0,61,0.00,,,0.00,WeatherCatV1.13B119,2013-02-20 07:55:00,
2013-02-20 03:00:00,34.2,22.2,29.75,West,280,1.0,6.0,61,0.00,,,0.00,WeatherCatV1.13B119,2013-02-20 08:00:00,
2013-02-20 03:05:00,34.2,22.2,29.75,SW,227,3.0,5.0,61,0.00,,,0.00,WeatherCatV1.13B119,2013-02-20 08:05:00,
2013-02-20 03:10:00,34.1,22.8,29.75,West,274,1.0,3.0,63,0.00,,,0.00,WeatherCatV1.13B119,2013-02-20 08:10:00,
2013-02-20 03:15:00,34.0,22.7,29.75,SW,224,3.0,4.0,63,0.00,,,0.00,WeatherCatV1.13B119,2013-02-20 08:15:00,
2013-02-20 03:20:00,33.9,23.0,29.75,SW,227,0.0,3.0,64,0.00,,,0.00,WeatherCatV1.13B119,2013-02-20 08:20:00,
2013-02-20 03:25:00,33.8,22.9,29.75,West,264,1.0,5.0,64,0.00,,,0.00,WeatherCatV1.13B119,2013-02-20 08:25:00,
2013-02-20 03:30:00,33.7,22.8,29.76,West,273,2.0,3.0,64,0.00,,,0.00,WeatherCatV1.13B119,2013-02-20 08:30:00,
2013-02-20 03:35:00,33.4,22.6,29.76,WSW,245,3.0,4.0,64,0.00,,,0.00,WeatherCatV1.13B119,2013-02-20 08:35:00,
2013-02-20 03:40:00,33.2,22.4,29.76,WSW,239,2.0,7.0,64,0.00,,,0.00,WeatherCatV1.13B119,2013-02-20 08:40:00,
2013-02-20 03:45:00,33.0,21.4,29.76,West,265,4.0,4.0,62,0.00,,,0.00,WeatherCatV1.13B119,2013-02-20 08:45:00,
2013-02-20 03:50:00,32.8,20.9,29.76,SSW,212,1.0,5.0,61,0.00,,,0.00,WeatherCatV1.13B119,2013-02-20 08:50:00,
2013-02-20 03:55:00,32.6,20.3,29.76,SW,216,7.0,7.0,60,0.00,,,0.00,WeatherCatV1.13B119,2013-02-20 08:55:00,
2013-02-20 04:00:00,32.5,19.8,29.76,West,267,2.0,11.0,59,0.00,,,0.00,WeatherCatV1.13B119,2013-02-20 09:00:00,
2013-02-20 04:05:00,32.3,19.2,29.76,WSW,254,4.0,7.0,58,0.00,,,0.00,WeatherCatV1.13B119,2013-02-20 09:05:00,
2013-02-20 04:10:00,32.1,19.4,29.77,SSW,207,0.0,4.0,59,0.00,,,0.00,WeatherCatV1.13B119,2013-02-20 09:10:00,
2013-02-20 04:15:00,32.0,18.9,29.77,WNW,284,2.0,5.0,58,0.00,,,0.00,WeatherCatV1.13B119,2013-02-20 09:15:00,
2013-02-20 04:20:00,31.8,19.1,29.77,West,273,2.0,4.0,59,0.00,,,0.00,WeatherCatV1.13B119,2013-02-20 09:20:00,
2013-02-20 04:25:00,31.6,18.9,29.77,SW,219,4.0,6.0,59,0.00,,,0.00,WeatherCatV1.13B119,2013-02-20 09:25:00,
2013-02-20 04:30:00,31.5,18.8,29.77,WSW,258,2.0,4.0,59,0.00,,,0.00,WeatherCatV1.13B119,2013-02-20 09:30:00,
2013-02-20 04:35:00,31.4,18.4,29.77,SW,233,1.0,4.0,58,0.00,,,0.00,WeatherCatV1.13B119,2013-02-20 09:35:00,
2013-02-20 04:40:00,31.2,18.2,29.77,West,268,2.0,2.0,58,0.00,,,0.00,WeatherCatV1.13B119,2013-02-20 09:40:00,
2013-02-20 04:45:00,31.1,18.5,29.77,WNW,284,1.0,4.0,59,0.00,,,0.00,WeatherCatV1.13B119,2013-02-20 09:45:00,
2013-02-20 04:50:00,31.1,18.1,29.78,SSW,213,1.0,4.0,58,0.00,,,0.00,WeatherCatV1.13B119,2013-02-20 09:50:00,
2013-02-20 04:55:00,31.0,18.0,29.78,WNW,284,1.0,8.0,58,0.00,,,0.00,WeatherCatV1.13B119,2013-02-20 09:55:00,
2013-02-20 05:00:00,31.0,18.0,29.78,West,274,0.0,3.0,58,0.00,,,0.00,WeatherCatV1.13B119,2013-02-20 10:00:00,
2013-02-20 05:05:00,30.9,17.9,29.78,West,261,2.0,4.0,58,0.00,,,0.00,WeatherCatV1.13B119,2013-02-20 10:05:00,
2013-02-20 05:10:00,30.9,17.9,29.79,WNW,294,0.0,2.0,58,0.00,,,0.00,WeatherCatV1.13B119,2013-02-20 10:10:00,
2013-02-20 05:15:00,30.9,17.9,29.79,SSW,200,1.0,3.0,58,0.00,,,0.00,WeatherCatV1.13B119,2013-02-20 10:15:00,
2013-02-20 05:20:00,30.8,17.8,29.80,NW,315,1.0,2.0,58,0.00,,,0.00,WeatherCatV1.13B119,2013-02-20 10:20:00,
2013-02-20 05:25:00,30.8,17.8,29.80,West,273,2.0,3.0,58,0.00,,,0.00,WeatherCatV1.13B119,2013-02-20 10:25:00,
2013-02-20 05:30:00,30.7,17.3,29.80,SSW,210,1.0,5.0,57,0.00,,,0.00,WeatherCatV1.13B119,2013-02-20 10:30:00,
2013-02-20 05:35:00,30.6,17.2,29.80,SSW,202,2.0,5.0,57,0.00,,,0.00,WeatherCatV1.13B119,2013-02-20 10:35:00,
2013-02-20 05:40:00,30.6,17.2,29.80,West,267,1.0,4.0,57,0.00,,,0.00,WeatherCatV1.13B119,2013-02-20 10:40:00,
2013-02-20 05:45:00,30.5,16.7,29.80,WSW,258,2.0,3.0,56,0.00,,,0.00,WeatherCatV1.13B119,2013-02-20 10:45:00,
2013-02-20 05:50:00,30.5,16.7,29.80,West,277,1.0,5.0,56,0.00,,,0.00,WeatherCatV1.13B119,2013-02-20 10:50:00,
2013-02-20 05:55:00,30.5,17.1,29.80,WSW,254,2.0,2.0,57,0.00,,,0.00,WeatherCatV1.13B119,2013-02-20 10:55:00,
2013-02-20 06:00:00,30.4,16.6,29.80,WSW,250,2.0,6.0,56,0.00,,,0.00,WeatherCatV1.13B119,2013-02-20 11:00:00,
2013-02-20 06:05:00,30.3,16.9,29.81,North,353,0.0,4.0,57,0.00,,,0.00,WeatherCatV1.13B119,2013-02-20 11:05:00,
2013-02-20 06:10:00,30.3,16.9,29.81,WNW,299,1.0,3.0,57,0.00,,,0.00,WeatherCatV1.13B119,2013-02-20 11:10:00,
2013-02-20 06:15:00,30.2,16.8,29.81,WSW,251,1.0,3.0,57,0.00,,,0.00,WeatherCatV1.13B119,2013-02-20 11:15:00,
2013-02-20 06:20:00,30.1,17.1,29.81,SW,217,0.0,2.0,58,0.00,,,0.00,WeatherCatV1.13B119,2013-02-20 11:20:00,
2013-02-20 06:25:00,30.1,16.7,29.81,NW,305,2.0,3.0,57,0.00,,,0.00,WeatherCatV1.13B119,2013-02-20 11:25:00,
2013-02-20 06:30:00,30.0,17.0,29.82,WSW,242,2.0,3.0,58,0.00,,,0.00,WeatherCatV1.13B119,2013-02-20 11:30:00,
2013-02-20 06:35:00,30.0,17.0,29.82,West,276,0.0,4.0,58,0.00,,,0.00,WeatherCatV1.13B119,2013-02-20 11:35:00,
2013-02-20 06:40:00,29.9,17.3,29.82,WNW,284,2.0,4.0,59,0.00,,,0.00,WeatherCatV1.13B119,2013-02-20 11:40:00,
2013-02-20 06:45:00,29.9,17.3,29.82,WNW,289,3.0,4.0,59,0.00,,,0.00,WeatherCatV1.13B119,2013-02-20 11:45:00,
2013-02-20 06:50:00,29.9,17.7,29.83,NW,315,2.0,4.0,60,0.00,,,0.00,WeatherCatV1.13B119,2013-02-20 11:50:00,
2013-02-20 06:55:00,29.9,17.7,29.83,NNW,329,1.0,2.0,60,0.00,,,0.00,WeatherCatV1.13B119,2013-02-20 11:55:00,
2013-02-20 07:00:00,29.9,18.1,29.83,SW,217,2.0,2.0,61,0.00,,,0.00,WeatherCatV1.13B119,2013-02-20 12:00:00,
2013-02-20 07:05:00,29.8,18.0,29.83,WSW,245,0.0,3.0,61,0.00,,,0.00,WeatherCatV1.13B119,2013-02-20 12:05:00,
2013-02-20 07:10:00,29.8,18.4,29.83,West,265,1.0,4.0,62,0.00,,,0.00,WeatherCatV1.13B119,2013-02-20 12:10:00,
2013-02-20 07:15:00,29.9,18.5,29.84,SW,222,1.0,3.0,62,0.00,,,0.00,WeatherCatV1.13B119,2013-02-20 12:15:00,
2013-02-20 07:20:00,30.0,18.6,29.84,WSW,254,2.0,3.0,62,0.00,,,0.00,WeatherCatV1.13B119,2013-02-20 12:20:00,
2013-02-20 07:25:00,30.1,18.7,29.84,West,279,2.0,5.0,62,0.00,,,0.00,WeatherCatV1.13B119,2013-02-20 12:25:00,
2013-02-20 07:30:00,30.2,18.8,29.84,SW,222,1.0,3.0,62,0.00,,,0.00,WeatherCatV1.13B119,2013-02-20 12:30:00,
2013-02-20 07:35:00,30.3,18.9,29.84,West,274,4.0,4.0,62,0.00,,,0.00,WeatherCatV1.13B119,2013-02-20 12:35:00,
2013-02-20 07:40:00,30.3,18.5,29.85,WSW,246,2.0,6.0,61,0.00,,,0.00,WeatherCatV1.13B119,2013-02-20 12:40:00,
2013-02-20 07:45:00,30.3,18.1,29.85,WNW,284,1.0,4.0,60,0.00,,,0.00,WeatherCatV1.13B119,2013-02-20 12:45:00,
2013-02-20 07:50:00,30.3,18.1,29.85,WSW,252,1.0,3.0,60,0.00,,,0.00,WeatherCatV1.13B119,2013-02-20 12:50:00,
2013-02-20 07:55:00,30.3,18.1,29.85,SW,229,2.0,4.0,60,0.00,,,0.00,WeatherCatV1.13B119,2013-02-20 12:55:00,
2013-02-20 08:00:00,30.3,17.7,29.85,SSW,198,4.0,5.0,59,0.00,,,0.00,WeatherCatV1.13B119,2013-02-20 13:00:00,
2013-02-20 08:05:00,30.2,17.6,29.85,WNW,294,3.0,5.0,59,0.00,,,0.00,WeatherCatV1.13B119,2013-02-20 13:05:00,
2013-02-20 08:10:00,30.2,16.8,29.85,WSW,238,1.0,6.0,57,0.00,,,0.00,WeatherCatV1.13B119,2013-02-20 13:10:00,
2013-02-20 08:15:00,30.0,16.6,29.85,SW,224,7.0,11.0,57,0.00,,,0.00,WeatherCatV1.13B119,2013-02-20 13:15:00,
2013-02-20 08:20:00,29.9,16.5,29.85,WNW,284,2.0,4.0,57,0.00,,,0.00,WeatherCatV1.13B119,2013-02-20 13:20:00,
2013-02-20 08:25:00,30.1,16.3,29.85,WNW,302,2.0,5.0,56,0.00,,,0.00,WeatherCatV1.13B119,2013-02-20 13:25:00,
2013-02-20 08:30:00,30.2,16.4,29.86,West,275,1.0,2.0,56,0.00,,,0.00,WeatherCatV1.13B119,2013-02-20 13:30:00,
2013-02-20 08:35:00,30.3,16.5,29.85,NW,317,1.0,3.0,56,0.00,,,0.00,WeatherCatV1.13B119,2013-02-20 13:35:00,
2013-02-20 08:40:00,30.3,15.2,29.86,North,350,8.0,8.0,53,0.00,,,0.00,WeatherCatV1.13B119,2013-02-20 13:40:00,
2013-02-20 08:45:00,30.2,13.8,29.86,WSW,248,2.0,8.0,50,0.00,,,0.00,WeatherCatV1.13B119,2013-02-20 13:45:00,
2013-02-20 08:50:00,30.2,13.4,29.86,WNW,284,1.0,8.0,49,0.00,,,0.00,WeatherCatV1.13B119,2013-02-20 13:50:00,
2013-02-20 08:55:00,30.2,13.4,29.87,NW,325,5.0,10.0,49,0.00,,,0.00,WeatherCatV1.13B119,2013-02-20 13:55:00,
2013-02-20 09:00:00,30.2,12.9,29.86,WNW,284,3.0,6.0,48,0.00,,,0.00,WeatherCatV1.13B119,2013-02-20 14:00:00,
2013-02-20 09:05:00,30.3,13.5,29.87,NNW,327,4.0,6.0,49,0.00,,,0.00,WeatherCatV1.13B119,2013-02-20 14:05:00,
2013-02-20 09:10:00,30.3,13.5,29.86,NW,311,4.0,11.0,49,0.00,,,0.00,WeatherCatV1.13B119,2013-02-20 14:10:00,
2013-02-20 09:15:00,30.5,13.2,29.86,West,265,3.0,4.0,48,0.00,,,0.00,WeatherCatV1.13B119,2013-02-20 14:15:00,
2013-02-20 09:20:00,30.7,13.4,29.87,West,269,4.0,5.0,48,0.00,,,0.00,WeatherCatV1.13B119,2013-02-20 14:20:00,
2013-02-20 09:25:00,30.9,13.1,29.87,West,260,3.0,9.0,47,0.00,,,0.00,WeatherCatV1.13B119,2013-02-20 14:25:00,
2013-02-20 09:30:00,30.9,12.6,29.87,SW,223,3.0,8.0,46,0.00,,,0.00,WeatherCatV1.13B119,2013-02-20 14:30:00,
2013-02-20 09:35:00,31.0,12.7,29.87,WSW,258,3.0,10.0,46,0.00,,,0.00,WeatherCatV1.13B119,2013-02-20 14:35:00,
2013-02-20 09:40:00,31.0,12.2,29.87,West,274,4.0,5.0,45,0.00,,,0.00,WeatherCatV1.13B119,2013-02-20 14:40:00,
2013-02-20 09:45:00,31.1,11.8,29.87,West,261,4.0,7.0,44,0.00,,,0.00,WeatherCatV1.13B119,2013-02-20 14:45:00,
2013-02-20 09:50:00,31.1,11.8,29.88,WNW,294,9.0,9.0,44,0.00,,,0.00,WeatherCatV1.13B119,2013-02-20 14:50:00,
2013-02-20 09:55:00,31.2,12.4,29.87,NNW,332,5.0,5.0,45,0.00,,,0.00,WeatherCatV1.13B119,2013-02-20 14:55:00,
2013-02-20 10:00:00,31.3,11.9,29.87,NNW,327,2.0,6.0,44,0.00,,,0.00,WeatherCatV1.13B119,2013-02-20 15:00:00,
2013-02-20 10:05:00,31.2,12.4,29.87,NNW,343,3.0,5.0,45,0.00,,,0.00,WeatherCatV1.13B119,2013-02-20 15:05:00,
2013-02-20 10:10:00,31.0,11.7,29.87,West,271,1.0,5.0,44,0.00,,,0.00,WeatherCatV1.13B119,2013-02-20 15:10:00,
2013-02-20 10:15:00,31.1,11.8,29.87,NW,321,3.0,6.0,44,0.00,,,0.00,WeatherCatV1.13B119,2013-02-20 15:15:00,
2013-02-20 10:20:00,31.0,11.7,29.87,North,351,7.0,8.0,44,0.00,,,0.00,WeatherCatV1.13B119,2013-02-20 15:20:00,
2013-02-20 10:25:00,30.8,12.0,29.87,WNW,294,5.0,6.0,45,0.00,,,0.00,WeatherCatV1.13B119,2013-02-20 15:25:00,
2013-02-20 10:30:00,31.0,12.2,29.87,North,0,9.0,9.0,45,0.00,,,0.00,WeatherCatV1.13B119,2013-02-20 15:30:00,
2013-02-20 10:35:00,31.0,11.7,29.87,NW,321,5.0,5.0,44,0.00,,,0.00,WeatherCatV1.13B119,2013-02-20 15:35:00,
2013-02-20 10:40:00,30.8,12.0,29.86,West,262,0.0,5.0,45,0.00,,,0.00,WeatherCatV1.13B119,2013-02-20 15:40:00,
2013-02-20 10:45:00,30.7,12.4,29.86,SSW,211,4.0,4.0,46,0.00,,,0.00,WeatherCatV1.13B119,2013-02-20 15:45:00,
2013-02-20 10:50:00,31.0,12.7,29.87,NW,317,3.0,7.0,46,0.00,,,0.00,WeatherCatV1.13B119,2013-02-20 15:50:00,
2013-02-20 10:55:00,30.9,12.1,29.86,North,9,3.0,5.0,45,0.00,,,0.00,WeatherCatV1.13B119,2013-02-20 15:55:00,
2013-02-20 11:00:00,30.6,12.3,29.86,West,269,1.0,4.0,46,0.00,,,0.00,WeatherCatV1.13B119,2013-02-20 16:00:00,
2013-02-20 11:05:00,30.6,13.3,29.86,West,269,1.0,3.0,48,0.00,,,0.00,WeatherCatV1.13B119,2013-02-20 16:05:00,
2013-02-20 11:10:00,30.8,13.5,29.86,West,268,3.0,9.0,48,0.00,,,0.00,WeatherCatV1.13B119,2013-02-20 16:10:00,
2013-02-20 11:15:00,31.0,13.2,29.86,NW,317,3.0,10.0,47,0.00,,,0.00,WeatherCatV1.13B119,2013-02-20 16:15:00,
2013-02-20 11:20:00,31.3,13.4,29.86,West,264,5.0,10.0,47,0.00,,,0.00,WeatherCatV1.13B119,2013-02-20 16:20:00,
2013-02-20 11:25:00,31.6,13.2,29.86,SW,220,4.0,6.0,46,0.00,,,0.00,WeatherCatV1.13B119,2013-02-20 16:25:00,
2013-02-20 11:30:00,31.6,13.2,29.86,North,351,4.0,8.0,46,0.00,,,0.00,WeatherCatV1.13B119,2013-02-20 16:30:00,
2013-02-20 11:35:00,31.5,12.6,29.86,WNW,303,3.0,7.0,45,0.00,,,0.00,WeatherCatV1.13B119,2013-02-20 16:35:00,
2013-02-20 11:40:00,31.3,11.9,29.86,NNW,334,3.0,7.0,44,0.00,,,0.00,WeatherCatV1.13B119,2013-02-20 16:40:00,
2013-02-20 11:45:00,31.6,13.2,29.85,WSW,256,1.0,4.0,46,0.00,,,0.00,WeatherCatV1.13B119,2013-02-20 16:45:00,
2013-02-20 11:50:00,31.7,12.3,29.85,NNW,343,10.0,11.0,44,0.00,,,0.00,WeatherCatV1.13B119,2013-02-20 16:50:00,
2013-02-20 11:55:00,31.3,11.9,29.85,WNW,289,3.0,6.0,44,0.00,,,0.00,WeatherCatV1.13B119,2013-02-20 16:55:00,
2013-02-20 12:00:00,31.3,12.9,29.85,WNW,294,1.0,4.0,46,0.00,,,0.00,WeatherCatV1.13B119,2013-02-20 17:00:00,
2013-02-20 12:05:00,31.5,14.6,29.85,SW,217,3.0,3.0,49,0.00,,,0.00,WeatherCatV1.13B119,2013-02-20 17:05:00,
2013-02-20 12:10:00,31.3,13.4,29.85,West,260,3.0,6.0,47,0.00,,,0.00,WeatherCatV1.13B119,2013-02-20 17:10:00,
2013-02-20 12:15:00,31.2,13.3,29.85,SW,217,4.0,12.0,47,0.00,,,0.00,WeatherCatV1.13B119,2013-02-20 17:15:00,
2013-02-20 12:20:00,31.2,13.3,29.85,WNW,302,1.0,10.0,47,0.00,,,0.00,WeatherCatV1.13B119,2013-02-20 17:20:00,
2013-02-20 12:25:00,31.3,12.9,29.85,WSW,253,3.0,7.0,46,0.00,,,0.00,WeatherCatV1.13B119,2013-02-20 17:25:00,
2013-02-20 12:30:00,31.5,13.1,29.85,SW,215,2.0,5.0,46,0.00,,,0.00,WeatherCatV1.13B119,2013-02-20 17:30:00,
2013-02-20 12:35:00,31.7,12.8,29.85,WNW,289,2.0,8.0,45,0.00,,,0.00,WeatherCatV1.13B119,2013-02-20 17:35:00,
2013-02-20 12:40:00,31.5,12.6,29.85,West,278,5.0,6.0,45,0.00,,,0.00,WeatherCatV1.13B119,2013-02-20 17:40:00,
2013-02-20 12:45:00,31.5,13.1,29.85,WSW,240,3.0,5.0,46,0.00,,,0.00,WeatherCatV1.13B119,2013-02-20 17:45:00,
2013-02-20 12:50:00,31.5,13.1,29.85,NNW,335,2.0,7.0,46,0.00,,,0.00,WeatherCatV1.13B119,2013-02-20 17:50:00,
2013-02-20 12:55:00,31.6,12.7,29.85,West,280,5.0,6.0,45,0.00,,,0.00,WeatherCatV1.13B119,2013-02-20 17:55:00,
2013-02-20 13:00:00,31.5,13.1,29.85,WSW,247,3.0,4.0,46,0.00,,,0.00,WeatherCatV1.13B119,2013-02-20 18:00:00,
2013-02-20 13:05:00,31.7,13.3,29.85,NNE,14,7.0,7.0,46,0.00,,,0.00,WeatherCatV1.13B119,2013-02-20 18:05:00,
2013-02-20 13:10:00,32.1,13.2,29.85,West,260,2.0,8.0,45,0.00,,,0.00,WeatherCatV1.13B119,2013-02-20 18:10:00,
2013-02-20 13:15:00,31.8,12.9,29.85,SW,217,2.0,5.0,45,0.00,,,0.00,WeatherCatV1.13B119,2013-02-20 18:15:00,
2013-02-20 13:20:00,31.9,13.5,29.85,WSW,244,2.0,5.0,46,0.00,,,0.00,WeatherCatV1.13B119,2013-02-20 18:20:00,
2013-02-20 13:25:00,32.0,13.6,29.85,WNW,294,2.0,6.0,46,0.00,,,0.00,WeatherCatV1.13B119,2013-02-20 18:25:00,
2013-02-20 13:30:00,31.9,13.5,29.85,SW,234,3.0,11.0,46,0.00,,,0.00,WeatherCatV1.13B119,2013-02-20 18:30:00,
2013-02-20 13:35:00,31.5,13.1,29.85,SW,227,5.0,9.0,46,0.00,,,0.00,WeatherCatV1.13B119,2013-02-20 18:35:00,
2013-02-20 13:40:00,31.0,13.2,29.85,WNW,284,3.0,8.0,47,0.00,,,0.00,WeatherCatV1.13B119,2013-02-20 18:40:00,
2013-02-20 13:45:00,30.9,13.5,29.85,WNW,289,2.0,7.0,48,0.00,,,0.00,WeatherCatV1.13B119,2013-02-20 18:45:00,
2013-02-20 13:50:00,30.8,13.5,29.85,WNW,284,1.0,4.0,48,0.00,,,0.00,WeatherCatV1.13B119,2013-02-20 18:50:00,
2013-02-20 13:55:00,30.8,13.5,29.85,SW,215,3.0,5.0,48,0.00,,,0.00,WeatherCatV1.13B119,2013-02-20 18:55:00,
2013-02-20 14:00:00,31.1,14.2,29.85,West,273,3.0,8.0,49,0.00,,,0.00,WeatherCatV1.13B119,2013-02-20 19:00:00,
2013-02-20 14:05:00,31.5,15.0,29.85,WSW,242,1.0,5.0,50,0.00,,,0.00,WeatherCatV1.13B119,2013-02-20 19:05:00,
2013-02-20 14:10:00,31.9,14.9,29.85,WSW,248,3.0,7.0,49,0.00,,,0.00,WeatherCatV1.13B119,2013-02-20 19:10:00,
2013-02-20 14:15:00,31.7,13.8,29.85,SW,234,2.0,7.0,47,0.00,,,0.00,WeatherCatV1.13B119,2013-02-20 19:15:00,
2013-02-20 14:20:00,31.4,14.0,29.85,SW,221,2.0,4.0,48,0.00,,,0.00,WeatherCatV1.13B119,2013-02-20 19:20:00,
2013-02-20 14:25:00,31.0,13.6,29.86,SW,227,3.0,8.0,48,0.00,,,0.00,WeatherCatV1.13B119,2013-02-20 19:25:00,
2013-02-20 14:30:00,30.8,13.9,29.86,WNW,289,4.0,4.0,49,0.00,,,0.00,WeatherCatV1.13B119,2013-02-20 19:30:00,
2013-02-20 14:35:00,31.1,13.7,29.86,North,352,4.0,5.0,48,0.00,,,0.00,WeatherCatV1.13B119,2013-02-20 19:35:00,
2013-02-20 14:40:00,31.0,13.2,29.86,WNW,284,3.0,5.0,47,0.00,,,0.00,WeatherCatV1.13B119,2013-02-20 19:40:00,
2013-02-20 14:45:00,30.8,13.5,29.86,North,354,3.0,7.0,48,0.00,,,0.00,WeatherCatV1.13B119,2013-02-20 19:45:00,
2013-02-20 14:50:00,30.9,13.5,29.86,WNW,294,3.0,4.0,48,0.00,,,0.00,WeatherCatV1.13B119,2013-02-20 19:50:00,
2013-02-20 14:55:00,31.4,12.0,29.87,WNW,294,7.0,8.0,44,0.00,,,0.00,WeatherCatV1.13B119,2013-02-20 19:55:00,
2013-02-20 15:00:00,31.0,11.7,29.87,SSW,201,1.0,6.0,44,0.00,,,0.00,WeatherCatV1.13B119,2013-02-20 20:00:00,
2013-02-20 15:05:00,30.7,12.9,29.87,WNW,289,2.0,5.0,47,0.00,,,0.00,WeatherCatV1.13B119,2013-02-20 20:05:00,
2013-02-20 15:10:00,30.6,12.8,29.87,WSW,257,4.0,5.0,47,0.00,,,0.00,WeatherCatV1.13B119,2013-02-20 20:10:00,
2013-02-20 15:15:00,30.7,11.4,29.87,WSW,245,3.0,5.0,44,0.00,,,0.00,WeatherCatV1.13B119,2013-02-20 20:15:00,
2013-02-20 15:20:00,30.9,11.6,29.87,South,191,1.0,3.0,44,0.00,,,0.00,WeatherCatV1.13B119,2013-02-20 20:20:00,
2013-02-20 15:25:00,31.0,11.7,29.87,SW,235,5.0,8.0,44,0.00,,,0.00,WeatherCatV1.13B119,2013-02-20 20:25:00,
2013-02-20 15:30:00,31.3,12.5,29.88,WNW,284,7.0,7.0,45,0.00,,,0.00,WeatherCatV1.13B119,2013-02-20 20:30:00,
2013-02-20 15:35:00,31.5,12.6,29.88,SSW,204,5.0,5.0,45,0.00,,,0.00,WeatherCatV1.13B119,2013-02-20 20:35:00,
2013-02-20 15:40:00,31.9,13.0,29.88,West,265,2.0,4.0,45,0.00,,,0.00,WeatherCatV1.13B119,2013-02-20 20:40:00,
2013-02-20 15:45:00,31.4,11.5,29.88,WSW,248,7.0,10.0,43,0.00,,,0.00,WeatherCatV1.13B119,2013-02-20 20:45:00,
2013-02-20 15:50:00,31.0,11.7,29.88,NNW,340,6.0,7.0,44,0.00,,,0.00,WeatherCatV1.13B119,2013-02-20 20:50:00,
2013-02-20 15:55:00,30.7,11.9,29.88,West,279,1.0,7.0,45,0.00,,,0.00,WeatherCatV1.13B119,2013-02-20 20:55:00,
2013-02-20 16:00:00,30.8,12.5,29.88,WSW,258,8.0,8.0,46,0.00,,,0.00,WeatherCatV1.13B119,2013-02-20 21:00:00,
2013-02-20 16:05:00,30.8,12.0,29.88,WNW,294,2.0,6.0,45,0.00,,,0.00,WeatherCatV1.13B119,2013-02-20 21:05:00,
2013-02-20 16:10:00,31.2,13.3,29.89,South,175,11.0,11.0,47,0.00,,,0.00,WeatherCatV1.13B119,2013-02-20 21:10:00,
2013-02-20 16:15:00,31.2,12.9,29.89,SW,225,4.0,7.0,46,0.00,,,0.00,WeatherCatV1.13B119,2013-02-20 21:15:00,
2013-02-20 16:20:00,30.9,13.1,29.89,SW,236,4.0,10.0,47,0.00,,,0.00,WeatherCatV1.13B119,2013-02-20 21:20:00,
2013-02-20 16:25:00,30.8,13.0,29.89,WSW,257,2.0,4.0,47,0.00,,,0.00,WeatherCatV1.13B119,2013-02-20 21:25:00,
2013-02-20 16:30:00,30.8,13.5,29.89,NNW,338,4.0,4.0,48,0.00,,,0.00,WeatherCatV1.13B119,2013-02-20 21:30:00,
2013-02-20 16:35:00,30.5,12.2,29.89,SW,229,6.0,7.0,46,0.00,,,0.00,WeatherCatV1.13B119,2013-02-20 21:35:00,
2013-02-20 16:40:00,30.2,11.9,29.89,West,263,3.0,4.0,46,0.00,,,0.00,WeatherCatV1.13B119,2013-02-20 21:40:00,
2013-02-20 16:45:00,30.1,12.8,29.89,West,273,1.0,3.0,48,0.00,,,0.00,WeatherCatV1.13B119,2013-02-20 21:45:00,
2013-02-20 16:50:00,30.0,12.7,29.89,SSW,200,1.0,4.0,48,0.00,,,0.00,WeatherCatV1.13B119,2013-02-20 21:50:00,
2013-02-20 16:55:00,29.9,13.1,29.89,WNW,284,1.0,4.0,49,0.00,,,0.00,WeatherCatV1.13B119,2013-02-20 21:55:00,
2013-02-20 17:00:00,29.9,12.6,29.90,SSW,209,3.0,7.0,48,0.00,,,0.00,WeatherCatV1.13B119,2013-02-20 22:00:00,
2013-02-20 17:05:00,29.9,13.1,29.90,West,273,2.0,4.0,49,0.00,,,0.00,WeatherCatV1.13B119,2013-02-20 22:05:00,
2013-02-20 17:10:00,30.0,13.2,29.90,NW,321,3.0,5.0,49,0.00,,,0.00,WeatherCatV1.13B119,2013-02-20 22:10:00,
2013-02-20 17:15:00,29.9,12.6,29.90,WNW,299,4.0,4.0,48,0.00,,,0.00,WeatherCatV1.13B119,2013-02-20 22:15:00,
2013-02-20 17:20:00,29.8,13.0,29.91,WSW,237,4.0,7.0,49,0.00,,,0.00,WeatherCatV1.13B119,2013-02-20 22:20:00,
2013-02-20 17:25:00,29.6,13.3,29.90,WSW,245,2.0,7.0,50,0.00,,,0.00,WeatherCatV1.13B119,2013-02-20 22:25:00,
2013-02-20 17:30:00,29.5,13.6,29.91,WSW,255,1.0,2.0,51,0.00,,,0.00,WeatherCatV1.13B119,2013-02-20 22:30:00,
2013-02-20 17:35:00,29.5,13.6,29.91,WNW,284,0.0,3.0,51,0.00,,,0.00,WeatherCatV1.13B119,2013-02-20 22:35:00,
2013-02-20 17:40:00,29.5,13.6,29.91,NW,317,2.0,3.0,51,0.00,,,0.00,WeatherCatV1.13B119,2013-02-20 22:40:00,
2013-02-20 17:45:00,29.5,13.2,29.92,West,277,3.0,5.0,50,0.00,,,0.00,WeatherCatV1.13B119,2013-02-20 22:45:00,
2013-02-20 17:50:00,29.5,13.6,29.92,West,277,3.0,4.0,51,0.00,,,0.00,WeatherCatV1.13B119,2013-02-20 22:50:00,
2013-02-20 17:55:00,29.5,13.6,29.92,SSW,212,2.0,4.0,51,0.00,,,0.00,WeatherCatV1.13B119,2013-02-20 22:55:00,
2013-02-20 18:00:00,29.4,14.0,29.92,WSW,242,1.0,5.0,52,0.00,,,0.00,WeatherCatV1.13B119,2013-02-20 23:00:00,
2013-02-20 18:05:00,29.3,14.3,29.92,West,279,2.0,5.0,53,0.00,,,0.00,WeatherCatV1.13B119,2013-02-20 23:05:00,
2013-02-20 18:10:00,29.2,14.2,29.93,SW,215,1.0,4.0,53,0.00,,,0.00,WeatherCatV1.13B119,2013-02-20 23:10:00,
2013-02-20 18:15:00,29.2,14.2,29.93,West,277,2.0,5.0,53,0.00,,,0.00,WeatherCatV1.13B119,2013-02-20 23:15:00,
2013-02-20 18:20:00,29.2,14.6,29.93,West,280,1.0,3.0,54,0.00,,,0.00,WeatherCatV1.13B119,2013-02-20 23:20:00,
2013-02-20 18:25:00,29.2,14.6,29.94,SW,215,3.0,5.0,54,0.00,,,0.00,WeatherCatV1.13B119,2013-02-20 23:25:00,
2013-02-20 18:30:00,29.2,14.6,29.94,WNW,294,2.0,3.0,54,0.00,,,0.00,WeatherCatV1.13B119,2013-02-20 23:30:00,
2013-02-20 18:35:00,29.2,14.6,29.94,West,278,2.0,2.0,54,0.00,,,0.00,WeatherCatV1.13B119,2013-02-20 23:35:00,
2013-02-20 18:40:00,29.2,14.6,29.95,North,351,2.0,7.0,54,0.00,,,0.00,WeatherCatV1.13B119,2013-02-20 23:40:00,
2013-02-20 18:45:00,29.1,14.6,29.95,NW,322,10.0,10.0,54,0.00,,,0.00,WeatherCatV1.13B119,2013-02-20 23:45:00,
2013-02-20 18:50:00,28.9,14.4,29.95,WSW,256,2.0,8.0,54,0.00,,,0.00,WeatherCatV1.13B119,2013-02-20 23:50:00,
2013-02-20 18:55:00,28.7,14.6,29.95,West,268,2.0,6.0,55,0.00,,,0.00,WeatherCatV1.13B119,2013-02-20 23:55:00,
2013-02-20 19:00:00,28.5,14.4,29.95,North,5,2.0,6.0,55,0.00,,,0.00,WeatherCatV1.13B119,2013-02-21 00:00:00,
2013-02-20 19:05:00,28.4,14.3,29.96,West,275,2.0,3.0,55,0.00,,,0.00,WeatherCatV1.13B119,2013-02-21 00:05:00,
2013-02-20 19:10:00,28.3,13.8,29.96,West,278,5.0,6.0,54,0.00,,,0.00,WeatherCatV1.13B119,2013-02-21 00:10:00,
2013-02-20 19:15:00,28.1,13.2,29.96,WNW,284,1.0,4.0,53,0.00,,,0.00,WeatherCatV1.13B119,2013-02-21 00:15:00,
2013-02-20 19:20:00,28.0,12.7,29.96,NNW,341,5.0,6.0,52,0.00,,,0.00,WeatherCatV1.13B119,2013-02-21 00:20:00,
2013-02-20 19:25:00,27.8,12.1,29.96,WSW,245,5.0,6.0,51,0.00,,,0.00,WeatherCatV1.13B119,2013-02-21 00:25:00,
2013-02-20 19:30:00,27.7,12.0,29.96,West,259,1.0,7.0,51,0.00,,,0.00,WeatherCatV1.13B119,2013-02-21 00:30:00,
2013-02-20 19:35:00,27.6,11.9,29.96,WSW,258,3.0,8.0,51,0.00,,,0.00,WeatherCatV1.13B119,2013-02-21 00:35:00,
2013-02-20 19:40:00,27.4,11.7,29.96,North,5,2.0,5.0,51,0.00,,,0.00,WeatherCatV1.13B119,2013-02-21 00:40:00,
2013-02-20 19:45:00,27.3,12.0,29.96,WNW,300,2.0,4.0,52,0.00,,,0.00,WeatherCatV1.13B119,2013-02-21 00:45:00,
2013-02-20 19:50:00,27.2,12.4,29.96,NNW,345,3.0,3.0,53,0.00,,,0.00,WeatherCatV1.13B119,2013-02-21 00:50:00,
2013-02-20 19:55:00,27.1,12.3,29.97,West,274,2.0,7.0,53,0.00,,,0.00,WeatherCatV1.13B119,2013-02-21 00:55:00,
2013-02-20 20:00:00,27.1,11.8,29.97,NW,313,3.0,8.0,52,0.00,,,0.00,WeatherCatV1.13B119,2013-02-21 01:00:00,
2013-02-20 20:05:00,27.0,11.7,29.98,WSW,258,1.0,6.0,52,0.00,,,0.00,WeatherCatV1.13B119,2013-02-21 01:05:00,
2013-02-20 20:10:00,27.0,11.7,29.98,West,279,3.0,4.0,52,0.00,,,0.00,WeatherCatV1.13B119,2013-02-21 01:10:00,
2013-02-20 20:15:00,26.9,11.7,29.98,WNW,302,3.0,6.0,52,0.00,,,0.00,WeatherCatV1.13B119,2013-02-21 01:15:00,
2013-02-20 20:20:00,26.9,11.7,29.98,North,5,7.0,7.0,52,0.00,,,0.00,WeatherCatV1.13B119,2013-02-21 01:20:00,
2013-02-20 20:25:00,26.8,11.6,29.97,NW,314,2.0,6.0,52,0.00,,,0.00,WeatherCatV1.13B119,2013-02-21 01:25:00,
2013-02-20 20:30:00,26.8,12.0,29.97,NNW,339,3.0,7.0,53,0.00,,,0.00,WeatherCatV1.13B119,2013-02-21 01:30:00,
2013-02-20 20:35:00,26.7,11.9,29.97,West,269,0.0,3.0,53,0.00,,,0.00,WeatherCatV1.13B119,2013-02-21 01:35:00,
2013-02-20 20:40:00,26.6,11.8,29.97,WSW,254,1.0,3.0,53,0.00,,,0.00,WeatherCatV1.13B119,2013-02-21 01:40:00,
2013-02-20 20:45:00,26.6,12.2,29.97,West,269,4.0,6.0,54,0.00,,,0.00,WeatherCatV1.13B119,2013-02-21 01:45:00,
2013-02-20 20:50:00,26.6,11.8,29.97,West,267,3.0,13.0,53,0.00,,,0.00,WeatherCatV1.13B119,2013-02-21 01:50:00,
2013-02-20 20:56:00,26.5,11.3,29.97,NNE,21,2.0,4.0,52,0.00,,,0.00,WeatherCatV1.13B119,2013-02-21 01:56:00,
2013-02-20 21:01:00,26.4,10.8,29.96,WNW,284,1.0,2.0,51,0.00,,,0.00,WeatherCatV1.13B119,2013-02-21 02:01:00,
2013-02-20 21:06:00,26.4,10.8,29.97,NNW,337,1.0,5.0,51,0.00,,,0.00,WeatherCatV1.13B119,2013-02-21 02:06:00,
2013-02-20 21:11:00,26.3,11.1,29.97,West,276,3.0,4.0,52,0.00,,,0.00,WeatherCatV1.13B119,2013-02-21 02:11:00,
2013-02-20 21:16:00,26.3,11.1,29.97,NW,325,0.0,1.0,52,0.00,,,0.00,WeatherCatV1.13B119,2013-02-21 02:16:00,
2013-02-20 21:21:00,26.2,11.0,29.97,NW,317,1.0,4.0,52,0.00,,,0.00,WeatherCatV1.13B119,2013-02-21 02:21:00,
2013-02-20 21:26:00,26.2,11.0,29.97,West,272,2.0,5.0,52,0.00,,,0.00,WeatherCatV1.13B119,2013-02-21 02:26:00,
2013-02-20 21:31:00,26.2,11.0,29.97,NNW,339,1.0,3.0,52,0.00,,,0.00,WeatherCatV1.13B119,2013-02-21 02:31:00,
2013-02-20 21:36:00,26.1,10.9,29.97,NE,37,0.0,3.0,52,0.00,,,0.00,WeatherCatV1.13B119,2013-02-21 02:36:00,
2013-02-20 21:41:00,26.1,10.9,29.97,North,353,4.0,4.0,52,0.00,,,0.00,WeatherCatV1.13B119,2013-02-21 02:41:00,
2013-02-20 21:46:00,26.1,10.9,29.98,NNW,337,3.0,4.0,52,0.00,,,0.00,WeatherCatV1.13B119,2013-02-21 02:46:00,
2013-02-20 21:51:00,26.0,10.8,29.98,NW,320,1.0,5.0,52,0.00,,,0.00,WeatherCatV1.13B119,2013-02-21 02:51:00,
2013-02-20 21:56:00,26.0,10.4,29.98,WNW,284,2.0,5.0,51,0.00,,,0.00,WeatherCatV1.13B119,2013-02-21 02:56:00,
2013-02-20 22:01:00,26.0,10.8,29.97,WNW,303,3.0,4.0,52,0.00,,,0.00,WeatherCatV1.13B119,2013-02-21 03:01:00,
2013-02-20 22:06:00,25.9,10.7,29.98,North,359,2.0,4.0,52,0.00,,,0.00,WeatherCatV1.13B119,2013-02-21 03:06:00,
2013-02-20 22:11:00,25.8,10.6,29.98,WSW,240,1.0,5.0,52,0.00,,,0.00,WeatherCatV1.13B119,2013-02-21 03:11:00,
2013-02-20 22:16:00,25.8,10.6,29.98,NNW,344,1.0,4.0,52,0.00,,,0.00,WeatherCatV1.13B119,2013-02-21 03:16:00,
2013-02-20 22:21:00,25.7,11.0,29.98,SW,235,1.0,2.0,53,0.00,,,0.00,WeatherCatV1.13B119,2013-02-21 03:21:00,
2013-02-20 22:26:00,25.7,11.0,29.98,East,79,1.0,2.0,53,0.00,,,0.00,WeatherCatV1.13B119,2013-02-21 03:26:00,
2013-02-20 22:31:00,25.6,10.9,29.99,NNW,333,3.0,5.0,53,0.00,,,0.00,WeatherCatV1.13B119,2013-02-21 03:31:00,
2013-02-20 22:36:00,25.6,10.9,29.99,WNW,294,3.0,5.0,53,0.00,,,0.00,WeatherCatV1.13B119,2013-02-21 03:36:00,
2013-02-20 22:41:00,25.5,11.2,29.99,West,277,2.0,5.0,54,0.00,,,0.00,WeatherCatV1.13B119,2013-02-21 03:41:00,
2013-02-20 22:46:00,25.5,10.8,29.99,SW,225,2.0,2.0,53,0.00,,,0.00,WeatherCatV1.13B119,2013-02-21 03:46:00,
2013-02-20 22:51:00,25.5,10.8,29.99,West,279,2.0,4.0,53,0.00,,,0.00,WeatherCatV1.13B119,2013-02-21 03:51:00,
2013-02-20 22:56:00,25.4,11.1,29.99,NNE,19,1.0,2.0,54,0.00,,,0.00,WeatherCatV1.13B119,2013-02-21 03:56:00,
2013-02-20 22:57:00,25.4,11.1,29.99,NNW,345,3.0,5.0,54,0.00,,,0.00,WeatherCatV1.13B119,2013-02-21 03:57:00,
2013-02-20 23:02:00,25.3,11.0,29.99,NW,325,1.0,5.0,54,0.00,,,0.00,WeatherCatV1.13B119,2013-02-21 04:02:00,
2013-02-20 23:07:00,25.3,11.0,29.99,WSW,256,1.0,3.0,54,0.00,,,0.00,WeatherCatV1.13B119,2013-02-21 04:07:00,
2013-02-20 23:12:00,25.3,11.0,30.00,WSW,256,1.0,7.0,54,0.00,,,0.00,WeatherCatV1.13B119,2013-02-21 04:12:00,
2013-02-20 23:17:00,25.3,11.4,30.00,SW,221,2.0,4.0,55,0.00,,,0.00,WeatherCatV1.13B119,2013-02-21 04:17:00,
2013-02-20 23:22:00,25.2,11.3,30.00,WSW,254,0.0,3.0,55,0.00,,,0.00,WeatherCatV1.13B119,2013-02-21 04:22:00,
2013-02-20 23:27:00,25.2,11.3,30.00,North,9,1.0,2.0,55,0.00,,,0.00,WeatherCatV1.13B119,2013-02-21 04:27:00,
2013-02-20 23:32:00,25.2,11.3,30.00,West,270,1.0,2.0,55,0.00,,,0.00,WeatherCatV1.13B119,2013-02-21 04:32:00,
2013-02-20 23:37:00,25.1,11.2,30.00,NNW,342,1.0,4.0,55,0.00,,,0.00,WeatherCatV1.13B119,2013-02-21 04:37:00,
2013-02-20 23:42:00,25.1,11.6,30.00,SSW,201,0.0,2.0,56,0.00,,,0.00,WeatherCatV1.13B119,2013-02-21 04:42:00,
2013-02-20 23:47:00,25.0,11.5,30.00,West,278,1.0,7.0,56,0.00,,,0.00,WeatherCatV1.13B119,2013-02-21 04:47:00,
2013-02-20 23:52:00,25.0,11.1,29.99,NW,325,2.0,5.0,55,0.00,,,0.00,WeatherCatV1.13B119,2013-02-21 04:52:00,
2013-02-20 23:57:00,25.0,11.5,30.00,North,7,4.0,4.0,56,0.00,,,0.00,WeatherCatV1.13B119,2013-02-21 04:57:00,